Location: Unspecified
(0.0000°N, 0.0000°E)
Time: 23:46:36
(UTC+00:00)

Vanguard 2 - Pass Details

Date: 06 October 2020
Orbit: 554 x 2937 km, 32.9° (Epoch: 28 October)

Event Time Altitude Azimuth Distance (km) Brightness Sun altitude
Rises 09:03:56 0° 335° (NNW) 2,848 10.2 48.7°
Reaches altitude 10° 09:07:38 10° 8° (N) 1,824 9.6 49.6°
Maximum altitude 09:09:12 12° 32° (NNE) 1,691 9.7 50.0°
Drops below altitude 10° 09:10:47 10° 56° (NE) 1,829 10.1 50.4°
Sets 09:14:30 0° 89° (E) 2,867 11.1 51.3°
